{"data":{"norad_id":53402,"epoch":"2026-05-24T23:21:16.672032Z","epoch_age_seconds":76649,"freshness":"FRESH","line1":"1 53402U 22097Q   26144.97310963 -.00000640  00000+0 -22140-4 0  9993","line2":"2 53402  53.2127 141.6715 0001145  69.3965 290.7150 15.08843276210034","mean_motion":15.08843276,"eccentricity":0.0001145,"inclination_deg":53.2127,"raan_deg":141.6715,"arg_perigee_deg":69.3965,"mean_anomaly_deg":290.715,"bstar":-2.214e-5,"rev_number":21003,"period_min":95.43734746378,"perigee_km":538.9412794028,"apogee_km":540.52547171881,"semimajor_km":6917.8703755608,"source":"CELESTRAK","updated_at":"2026-05-25T13:38:17.398320Z"}}